| time (UTC) | temp C | wind direction | speed KPH | gust KPH | rain 1hr cm | rain 24hr cm | rain mn cm | humidity % | barometer mb |
| 20260904213051 | 26 | 190 | 4.8 | 16.1 | 0.00 | 0.00 | 0.00 | 60 | 1012.8 |
| 20260904211554 | 26 | 206 | 4.8 | 14.5 | 0.00 | 0.00 | 0.00 | 60 | 1012.8 |
| 20260904210059 | 26 | 140 | 3.2 | 11.3 | 0.00 | 0.00 | 0.00 | 60 | 1012.9 |
| 20260904204558 | 26 | 188 | 4.8 | 14.5 | 0.00 | 0.00 | 0.00 | 61 | 1013.0 |
| 20260904203050 | 26 | 181 | 1.6 | 16.1 | 0.00 | 0.00 | 0.00 | 61 | 1013.1 |
| 20260904201548 | 26 | 173 | 8.0 | 16.1 | 0.00 | 0.00 | 0.00 | 60 | 1013.1 |
| 20260904200059 | 26 | 202 | 3.2 | 17.7 | 0.00 | 0.00 | 0.00 | 60 | 1013.2 |
| 20260904194601 | 26 | 181 | 4.8 | 16.1 | 0.00 | 0.00 | 0.00 | 61 | 1013.2 |
| 20260904193049 | 26 | 246 | 6.4 | 11.3 | 0.00 | 0.00 | 0.00 | 61 | 1013.5 |
| 20260904191550 | 25 | 238 | 1.6 | 14.5 | 0.00 | 0.00 | 0.00 | 62 | 1013.7 |
| 20260904190058 | 25 | 110 | 3.2 | 12.9 | 0.00 | 0.00 | 0.00 | 62 | 1014.0 |
| 20260904184602 | 25 | 221 | 3.2 | 16.1 | 0.00 | 0.00 | 0.00 | 62 | 1014.1 |
| 20260904183049 | 25 | 126 | 6.4 | 14.5 | 0.00 | 0.00 | 0.00 | 61 | 1014.0 |
| 20260904181606 | 25 | 234 | 3.2 | 12.9 | 0.00 | 0.00 | 0.00 | 63 | 1014.0 |
| 20260904180116 | 25 | 190 | 3.2 | 9.7 | 0.00 | 0.00 | 0.00 | 63 | 1014.0 |
| 20260904174610 | 24 | 207 | 4.8 | 11.3 | 0.00 | 0.00 | 0.00 | 64 | 1014.1 |
| 20260904173051 | 23 | 0 | 3.2 | 8.0 | 0.00 | 0.00 | 0.00 | 64 | 1014.0 |
| 20260904171545 | 25 | 215 | 4.8 | 11.3 | 0.00 | 0.00 | 0.00 | 64 | 1014.0 |
| 20260904170048 | 24 | 239 | 1.6 | 8.0 | 0.00 | 0.00 | 0.00 | 67 | 1013.9 |
| 20260904164555 | 23 | 155 | 1.6 | 9.7 | 0.00 | 0.00 | 0.00 | 69 | 1013.8 |
| 20260904163102 | 22 | 206 | 0.0 | 8.0 | 0.00 | 0.00 | 0.00 | 73 | 1013.7 |
| 20260904161549 | 22 | 103 | 1.6 | 11.3 | 0.00 | 0.00 | 0.00 | 78 | 1013.7 |
| 20260904160057 | 21 | 129 | 0.0 | 9.7 | 0.00 | 0.00 | 0.00 | 81 | 1013.6 |
| 20260904154555 | 20 | 0 | 1.6 | 6.4 | 0.00 | 0.00 | 0.00 | 85 | 1013.4 |
| 20260904153051 | 20 | 0 | 1.6 | 6.4 | 0.00 | 0.00 | 0.00 | 86 | 1013.4 |
| 20260904151546 | 18 | 170 | 1.6 | 6.4 | 0.00 | 0.00 | 0.00 | 87 | 1013.6 |
| 20260904150053 | 18 | 126 | 1.6 | 11.3 | 0.00 | 0.00 | 0.00 | 88 | 1013.5 |
| 20260904144552 | 17 | 136 | 1.6 | 6.4 | 0.00 | 0.00 | 0.00 | 88 | 1013.4 |
| 20260904143049 | 17 | 92 | 1.6 | 4.8 | 0.00 | 0.00 | 0.00 | 88 | 1013.3 |
| 20260904141545 | 16 | 0 | 1.6 | 4.8 | 0.00 | 0.00 | 0.00 | 88 | 1013.1 |
| 20260904140046 | 16 | 0 | 0.0 | 1.6 | 0.00 | 0.00 | 0.00 | 87 | 1012.9 |
| 20260904134552 | 16 | 0 | 0.0 | 0.0 | 0.00 | 0.00 | 0.00 | 87 | 1012.7 |
| 20260904133057 | 16 | 0 | 0.0 | 0.0 | 0.00 | 0.00 | 0.00 | 87 | 1012.8 |
| 20260904131555 | 16 | 0 | 0.0 | 0.0 | 0.00 | 0.00 | 0.00 | 87 | 1012.8 |
| 20260904130044 | 16 | 0 | 0.0 | 0.0 | 0.00 | 0.00 | 0.00 | 87 | 1012.5 |
| 20260904124549 | 16 | 0 | 0.0 | 0.0 | 0.00 | 0.00 | 0.00 | 86 | 1012.5 |
| 20260904123111 | 16 | 0 | 0.0 | 0.0 | 0.00 | 0.00 | 0.00 | 87 | 1012.3 |
| 20260904121549 | 16 | 0 | 0.0 | 1.6 | 0.00 | 0.00 | 0.00 | 86 | 1012.2 |
| 20260904120048 | 16 | 0 | 0.0 | 0.0 | 0.00 | 0.00 | 0.00 | 86 | 1012.1 |
| 20260904114545 | 16 | 317 | 0.0 | 0.0 | 0.00 | 0.00 | 0.00 | 86 | 1012.3 |
| 20260904113053 | 16 | 0 | 0.0 | 0.0 | 0.00 | 0.00 | 0.00 | 86 | 1012.3 |
| 20260904111550 | 16 | 0 | 0.0 | 0.0 | 0.00 | 0.00 | 0.00 | 86 | 1012.3 |
| 20260904110109 | 16 | 0 | 0.0 | 0.0 | 0.00 | 0.00 | 0.00 | 86 | 1012.3 |
| 20260904104549 | 16 | 0 | 0.0 | 0.0 | 0.00 | 0.00 | 0.00 | 85 | 1012.3 |
| 20260904103055 | 16 | 0 | 0.0 | 0.0 | 0.00 | 0.00 | 0.00 | 85 | 1012.3 |
| 20260904101603 | 17 | 0 | 0.0 | 0.0 | 0.00 | 0.00 | 0.00 | 85 | 1012.3 |
| 20260904100046 | 16 | 0 | 0.0 | 0.0 | 0.00 | 0.00 | 0.00 | 85 | 1012.3 |
| 20260904094546 | 17 | 0 | 0.0 | 0.0 | 0.00 | 0.00 | 0.00 | 85 | 1012.4 |
| 20260904093112 | 17 | 0 | 0.0 | 0.0 | 0.00 | 0.00 | 0.00 | 84 | 1012.4 |
| 20260904091548 | 17 | 0 | 0.0 | 0.0 | 0.00 | 0.00 | 0.00 | 84 | 1012.3 |
| 20260904090051 | 17 | 0 | 0.0 | 0.0 | 0.00 | 0.00 | 0.00 | 84 | 1012.3 |
| 20260904084555 | 17 | 0 | 0.0 | 0.0 | 0.00 | 0.00 | 0.00 | 84 | 1012.3 |
| 20260904083052 | 17 | 0 | 0.0 | 0.0 | 0.00 | 0.00 | 0.00 | 83 | 1012.4 |
| 20260904081548 | 17 | 0 | 0.0 | 0.0 | 0.00 | 0.00 | 0.00 | 83 | 1012.5 |
| 20260904080045 | 17 | 0 | 0.0 | 0.0 | 0.00 | 0.00 | 0.00 | 83 | 1012.4 |
| 20260904074555 | 17 | 0 | 0.0 | 0.0 | 0.00 | 0.00 | 0.00 | 83 | 1012.4 |
| 20260904073049 | 18 | 0 | 0.0 | 0.0 | 0.00 | 0.00 | 0.00 | 82 | 1012.5 |
| 20260904071559 | 18 | 0 | 0.0 | 0.0 | 0.00 | 0.00 | 0.00 | 82 | 1012.5 |
| 20260904070059 | 18 | 0 | 0.0 | 0.0 | 0.00 | 0.00 | 0.00 | 81 | 1012.5 |
| 20260904064553 | 18 | 0 | 0.0 | 0.0 | 0.00 | 0.00 | 0.00 | 81 | 1012.4 |
| 20260904063048 | 18 | 0 | 0.0 | 0.0 | 0.00 | 0.00 | 0.00 | 80 | 1012.4 |
| 20260904061552 | 18 | 0 | 0.0 | 0.0 | 0.00 | 0.00 | 0.00 | 80 | 1012.4 |
| 20260904060100 | 19 | 0 | 0.0 | 0.0 | 0.00 | 0.00 | 0.00 | 80 | 1012.4 |
| 20260904054558 | 19 | 0 | 0.0 | 0.0 | 0.00 | 0.00 | 0.00 | 79 | 1012.3 |
| 20260904053050 | 20 | 0 | 0.0 | 1.6 | 0.00 | 0.00 | 0.00 | 79 | 1012.5 |
| 20260904051558 | 20 | 0 | 0.0 | 1.6 | 0.00 | 0.00 | 0.00 | 79 | 1012.6 |
| 20260904050056 | 20 | 0 | 0.0 | 1.6 | 0.00 | 0.00 | 0.00 | 78 | 1012.5 |
| 20260904044554 | 20 | 0 | 0.0 | 3.2 | 0.00 | 0.00 | 0.00 | 78 | 1012.5 |
| 20260904043049 | 20 | 0 | 0.0 | 4.8 | 0.00 | 0.00 | 0.00 | 78 | 1012.3 |
| 20260904041554 | 20 | 0 | 0.0 | 3.2 | 0.00 | 0.00 | 0.00 | 77 | 1012.3 |
| 20260904040049 | 21 | 0 | 0.0 | 3.2 | 0.00 | 0.00 | 0.00 | 76 | 1012.3 |
| 20260904034557 | 21 | 0 | 0.0 | 3.2 | 0.00 | 0.00 | 0.00 | 75 | 1012.1 |
| 20260904033048 | 21 | 288 | 1.6 | 6.4 | 0.00 | 0.00 | 0.00 | 73 | 1011.8 |
| 20260904031549 | 21 | 0 | 0.0 | 4.8 | 0.00 | 0.00 | 0.00 | 70 | 1011.7 |
| 20260904030059 | 21 | 289 | 0.0 | 3.2 | 0.00 | 0.00 | 0.00 | 68 | 1011.6 |
| 20260904024549 | 21 | 0 | 1.6 | 6.4 | 0.00 | 0.00 | 0.00 | 66 | 1011.5 |
| 20260904023054 | 22 | 281 | 1.6 | 8.0 | 0.00 | 0.00 | 0.00 | 66 | 1011.5 |
| 20260904021546 | 22 | 282 | 1.6 | 6.4 | 0.00 | 0.00 | 0.00 | 64 | 1011.4 |
| 20260904020048 | 23 | 295 | 1.6 | 11.3 | 0.00 | 0.00 | 0.00 | 62 | 1011.4 |
| 20260904014553 | 23 | 281 | 3.2 | 9.7 | 0.00 | 0.00 | 0.00 | 61 | 1011.4 |
| 20260904013047 | 23 | 0 | 0.0 | 4.8 | 0.00 | 0.00 | 0.00 | 65 | 1011.5 |
| 20260904011605 | 24 | 304 | 1.6 | 6.4 | 0.00 | 0.00 | 0.00 | 65 | 1011.4 |
| 20260904010044 | 24 | 355 | 3.2 | 14.5 | 0.00 | 0.00 | 0.00 | 65 | 1011.5 |
| 20260904004557 | 24 | 181 | 6.4 | 16.1 | 0.00 | 0.00 | 0.00 | 64 | 1011.4 |
| 20260904003048 | 25 | 152 | 4.8 | 17.7 | 0.00 | 0.00 | 0.00 | 63 | 1011.4 |
| 20260904001547 | 25 | 207 | 6.4 | 11.3 | 0.00 | 0.00 | 0.00 | 63 | 1011.4 |
| 20260904000100 | 25 | 182 | 6.4 | 14.5 | 0.00 | 0.00 | 0.00 | 62 | 1011.6 |
| 20260903234554 | 25 | 205 | 8.0 | 14.5 | 0.00 | 0.00 | 0.00 | 62 | 1011.7 |
| 20260903233049 | 25 | 215 | 6.4 | 19.3 | 0.00 | 0.00 | 0.00 | 63 | 1011.8 |
| 20260903231548 | 26 | 214 | 4.8 | 17.7 | 0.00 | 0.00 | 0.00 | 63 | 1011.9 |
| 20260903230057 | 26 | 242 | 4.8 | 19.3 | 0.00 | 0.00 | 0.00 | 62 | 1012.1 |
| 20260903224552 | 26 | 175 | 6.4 | 17.7 | 0.00 | 0.00 | 0.00 | 64 | 1012.2 |
| 20260903223049 | 26 | 189 | 8.0 | 16.1 | 0.00 | 0.00 | 0.00 | 63 | 1012.4 |
| 20260903221545 | 25 | 232 | 6.4 | 16.1 | 0.00 | 0.00 | 0.00 | 64 | 1012.7 |
| 20260903220104 | 25 | 192 | 9.7 | 17.7 | 0.00 | 0.00 | 0.00 | 63 | 1012.8 |
| 20260903214553 | 26 | 235 | 6.4 | 17.7 | 0.00 | 0.00 | 0.00 | 63 | 1012.9 |